Regional Weather Roundup
Issued by NWS

Home | Current Version | Previous Version | Graphics & Text | Print | Product List | Glossary On
Versions: 1 2 3 4 5 6 7 8 9 10 11 12 13 14 15 16 17 18 19 20 21 22 23 24 25 26 27 28 29 30 31 32 33 34 35 36 37 38 39 40 41 42 43 44 45 46 47 48 49 50
951
ASUS43 KFSD 071310
RWRSD

WEATHER ROUNDUP FOR SOUTH DAKOTA
NATIONAL WEATHER SERVICE SIOUX FALLS SD
700 AM CST SUN FEB 07 2016

NOTE: "FAIR" INDICATES FEW OR NO CLOUDS BELOW 12,000 FEET WITH NO
SIGNIFICANT WEATHER AND/OR OBSTRUCTIONS TO VISIBILITY.


SDZ001>005-009-010-012>017-071400-
NORTHWEST AND NORTH CENTRAL SOUTH DAKOTA

CITY           SKY/WX    TMP DP  RH WIND       PRES   REMARKS
BUFFALO          N/A     33  14  45 W36G48    29.96R WCI  18
FAITH            N/A     33  15  47 NW33G46   29.95F WCI  18
MOBRIDGE       CLEAR     37  20  50 NW24G37   29.81F
$$

SDZ012>016-024>037-041>051-057-063-072>074-071400-
SOUTHWEST AND SOUTH CENTRAL SOUTH DAKOTA

CITY           SKY/WX    TMP DP  RH WIND       PRES   REMARKS
RAPID CTY ARPT PTCLDY    35  12  38 NW32G41   30.10R WCI  21
PIERRE         CLEAR     35  25  66 W23G31    29.93F WCI  23
CUSTER         PTCLDY    25   7  46 NW18G32   30.06R WCI  11
ELLSWORTH AFB  CLEAR     35  12  38 NW32G40   30.06S WCI  21
PHILIP         CLEAR     34  20  56 W22G28    30.04R WCI  22
PINE RIDGE     CLOUDY    32  21  64 NW6       30.12R WCI  26
SPEARFISH      MIX PCPN  32  10  40 W25G39    30.11S WCI  19
WINNER         CLOUDY    37  24  59 W20       30.00S
$$

SDZ004>011-016>023-039-040-071400-
NORTHEAST SOUTH DAKOTA

CITY           SKY/WX    TMP DP  RH WIND       PRES   REMARKS
ABERDEEN       PTCLDY    38  24  57 W17       29.79S
WATERTOWN      PTCLDY    33  24  69 W21G31    29.74F WCI  21
BROOKINGS      CLOUDY    34  26  72 W23G31    29.77S WCI  22
SISSETON         N/A     36  25  64 NW26G37   29.68R
$$

SDZ017-020-022-023-036>040-048>070-071400-
SOUTHEAST SOUTH DAKOTA

CITY           SKY/WX    TMP DP  RH WIND       PRES   REMARKS
SIOUX FALLS    MOCLDY    35  25  66 W16G29    29.85R WCI  25
HURON          CLOUDY    36  28  73 W22       29.86F
CHAMBERLAIN    MOCLDY    35  28  77 W18G26    29.96R WCI  24
MITCHELL       CLOUDY    36  28  73 W17       29.91S
YANKTON        MOCLDY    37  25  60 W21G28    29.92F
$$

ABBREVIATIONS USED IN REMARKS
   TC - TEMPERATURE IN CELSIUS
  WCI - WIND CHILL INDEX
   HX - HEAT INDEX
  VSB - VISIBILITY





USA.gov is the U.S. government's official web portal to all federal, state and local government web resources and services.